This is the latest recevied weather packets stored in our database for station/object N6ZHV-13. If no packets are shown the sender has not sent any weather packets the latest 1 day(s).
| Time | Temp. | Humidity | Pressure | Rain* | Wind** | Luminosity | Snow |
|---|---|---|---|---|---|---|---|
| 1778022291 | 18.33° C | 53% | 1016 hPa | 0 mm | 2.68 m/s, 291° | - | - |
| 1778021991 | 17.22° C | 55% | 1016.1 hPa | 0 mm | 2.68 m/s, 285° | - | - |
| 1778021691 | 17.22° C | 54% | 1016.1 hPa | 0 mm | 2.68 m/s, 236° | - | - |
| 1778021391 | 17.22° C | 53% | 1016.2 hPa | 0 mm | 1.79 m/s, 248° | - | - |
| 1778021091 | 17.22° C | 54% | 1016.2 hPa | 0 mm | 0.45 m/s, 189° | - | - |
| 1778020791 | 17.22° C | 54% | 1016.3 hPa | 0 mm | 2.24 m/s, 257° | - | - |
| 1778020491 | 17.22° C | 53% | 1016.3 hPa | 0 mm | 2.68 m/s, 233° | - | - |
| 1778020191 | 17.22° C | 53% | 1016.3 hPa | 0 mm | 4.02 m/s, 274° | - | - |
| 1778019891 | 16.67° C | 53% | 1016.4 hPa | 0 mm | 1.79 m/s, 230° | - | - |
| 1778019591 | 17.22° C | 54% | 1016.4 hPa | 0 mm | 0.45 m/s, 208° | - | - |
| 1778019291 | 17.78° C | 53% | 1016.3 hPa | 0 mm | 3.13 m/s, 267° | - | - |
| 1778018991 | 17.22° C | 52% | 1016.4 hPa | 0 mm | 0.89 m/s, 315° | - | - |
| 1778018691 | 17.78° C | 52% | 1016.5 hPa | 0 mm | 2.24 m/s, 246° | - | - |
| 1778018391 | 17.78° C | 53% | 1016.5 hPa | 0 mm | 0.45 m/s, 250° | - | - |
| 1778018091 | 17.22° C | 53% | 1016.6 hPa | 0 mm | 2.68 m/s, 272° | - | - |
| 1778017791 | 17.78° C | 53% | 1016.6 hPa | 0 mm | 3.58 m/s, 285° | - | - |
| 1778017491 | 17.22° C | 52% | 1016.6 hPa | 0 mm | 4.92 m/s, 216° | - | - |
| 1778017191 | 17.22° C | 54% | 1016.7 hPa | 0 mm | 0 m/s | - | - |
| 1778016891 | 17.22° C | 54% | 1016.7 hPa | 0 mm | 4.02 m/s, 264° | - | - |
| 1778016591 | 17.78° C | 52% | 1016.7 hPa | 0 mm | 0.89 m/s, 209° | - | - |
| 1778016291 | 18.33° C | 52% | 1016.7 hPa | 0 mm | 3.58 m/s, 255° | - | - |
| 1778015991 | 17.78° C | 52% | 1016.7 hPa | 0 mm | 3.58 m/s, 251° | - | - |
| 1778015691 | 17.78° C | 53% | 1016.8 hPa | 0 mm | 1.34 m/s, 292° | - | - |
| 1778015391 | 17.78° C | 54% | 1016.8 hPa | 0 mm | 0 m/s | - | - |
| 1778015091 | 17.22° C | 54% | 1016.8 hPa | 0 mm | 0.89 m/s, 336° | - | - |
* Rain latest hour (hover to see other rain measurements)
** Current wind speed in m/s (hover to see current wind gust speed)